Regional Weather Roundup
Issued by NWS Kansas City/Pleasant Hill, MO

Home | Current Version | Previous Version | Text Only | Print | Product List | Glossary On
Versions: 1 2 3 4 5 6 7 8 9 10 11 12 13 14 15 16 17 18 19 20 21 22 23 24 25 26 27 28 29 30 31 32 33 34 35 36 37 38 39 40 41 42 43 44 45 46 47 48 49 50
000
ASUS43 KEAX 270404
RWREAX

WEATHER ROUNDUP FOR EASTERN KANSAS AND NORTHWEST MISSOURI
NATIONAL WEATHER SERVICE KANSAS CITY/PLEASANT HILL MO
1100 PM CDT SUN APR 26 2015

KSZ040-057-103>105-MOZ028-029-037-043-270500-
...KANSAS CITY METROPOLITAN AREA...

CITY           SKY/WX    TMP DP  RH WIND       PRES   REMARKS
K.C. INTL      PTCLDY    50  39  66 E8        30.03R
K.C. DOWNTOWN  PTCLDY    51  38  60 NE7       30.02R
LEES SUMMIT    CLEAR     52  36  54 NE10      30.01S
OLATHE - IXD   CLEAR     52  37  56 NE10      30.00S
OLATHE - OJC   CLEAR     52  38  58 NE8       30.00R
LAWRENCE       PTCLDY    52  39  61 NE10      30.00F

$$

MOZ001>008-011>017-020>025-030>033-038>040-044>046-053-054-270500-
...NORTHERN AND CENTRAL MISSOURI...

CITY           SKY/WX    TMP DP  RH WIND       PRES   REMARKS
ST. JOSEPH     PTCLDY    53  33  46 NE9       30.06R
MOSBY          PTCLDY    48  39  71 NE3       30.04R
WARRENSBURG    CLEAR     50  37  62 NE6       30.01S
WHITEMAN AFB   CLEAR     48  38  67 NE8       30.00S
CLINTON        PTCLDY    52  39  62 NE7       30.00R
SEDALIA        CLEAR     51  36  56 NE8       30.02S
WARSAW         NOT AVBL
MARSHALL       PTCLDY    54  39  58 NE8       30.04F
CHILLICOTHE      N/A     52  37  56 NE7       30.07R
MOBERLY        CLEAR     46  36  66 NE6       30.06R
KIRKSVILLE     CLEAR     47  35  63 NE5       30.07R

$$

MOZ041-047>049-056>058-063>065-088>090-097-270500-
...EASTERN AND SOUTHERN MISSOURI...

CITY           SKY/WX    TMP DP  RH WIND       PRES   REMARKS
ST. LOUIS INTL PTCLDY    52  35  52 NE6       30.04R
SPIRIT OF STL  CLEAR     48  37  65 NE6       30.02R
COLUMBIA       PTCLDY    49  38  65 NE10      30.03R
JEFFERSON CITY PTCLDY    54  33  45 NE8       30.02R
MEXICO         CLEAR     50  41  71 NE6       30.05R
HANNIBAL       CLEAR     50  32  50 NE3       30.06S
ROLLA          CLEAR     47  35  63 NE8       29.99R
LEBANON        FAIR      52  36  54 E8        29.98R
OSAGE BEACH    CLEAR     48  36  61 NE7       29.99S
SPRINGFIELD    MOCLDY    52  43  71 E9        29.95R
BRANSON        CLOUDY    50  45  81 CALM      29.93S
NEVADA         MOCLDY    50  41  71 NE9       29.98R
JOPLIN         CLOUDY    51  45  79 NE8       29.93R
WEST PLAINS    PTCLDY    51  39  63 E7        29.97R

$$

IAZ060-094-KSZ022-034>040-054-083-096-NEZ052-066-093-270500-
...KANSAS...SOUTHEAST NEBRASKA AND IOWA...

CITY           SKY/WX    TMP DP  RH WIND       PRES   REMARKS
TOPEKA         PTCLDY    53  39  59 NE8       30.01S
MANHATTAN      CLEAR     50  41  71 N3        30.01R
EMPORIA        MOCLDY    50  42  74 NE9       29.97R
CHANUTE        CLOUDY    52  46  80 NE6       29.95R
WICHITA        CLOUDY    53  45  74 N13       29.95R
OMAHA          PTCLDY    53  35  50 SE5       30.10R
LINCOLN        CLEAR     41  35  79 N7        30.10R
FALLS CITY     CLEAR     51  32  48 NE9       30.05R
LAMONI         CLEAR     49  30  48 NE5       30.08R
DES MOINES     CLEAR     53  25  33 SE5       30.09R

$$



USA.gov is the U.S. government's official web portal to all federal, state and local government web resources and services.